Location: Maiden
(35.5760°N, 81.2120°W)
Time: 04:19:38
(UTC-05:00)

N. Korean satellite - Visible Passes

Search period start: 17 February 2019 00:00
Search period end: 27 February 2019 00:00
Orbit: 457 x 510 km, 97.2° (Epoch: 16 February)

Date Brightness Start Highest point End Pass type
(mag) Time Alt. Az. Time Alt. Az. Time Alt. Az.
17 Feb 10.1 05:38:38 10° ENE 05:40:12 13° E 05:41:44 10° ESE visible
18 Feb 10.2 18:52:55 10° SW 18:55:03 15° W 18:57:11 10° WNW visible
19 Feb 7.4 06:20:55 10° NNE 06:24:18 52° E 06:27:39 10° S visible
20 Feb 9.2 05:56:42 10° NE 05:59:30 23° E 06:02:16 10° SSE visible
21 Feb 10.3 05:33:55 10° E 05:34:36 10° E 05:35:18 10° ESE visible
22 Feb 10.0 18:47:03 10° SW 18:49:30 17° W 18:51:56 10° NW visible
23 Feb 7.9 06:15:26 10° NNE 06:18:44 43° E 06:22:00 10° S visible
24 Feb 9.6 05:51:21 10° NE 05:53:54 19° E 05:56:25 10° SE visible
26 Feb 9.9 18:41:13 10° SW 18:43:54 19° W 18:46:34 10° NW visible
